| time (UTC) | temp F | wind direction | speed knots | gust knots | rain 1hr in | rain 24hr in | rain mn in | humidity % | barometer mb |
| 20260906150109 | 64 | 104 | 3.5 | 12.2 | 0.00 | 0.05 | 0.00 | 74 | 1022.1 |
| 20260906145605 | 63 | 151 | 3.5 | 12.2 | 0.00 | 0.05 | 0.00 | 73 | 1022.1 |
| 20260906145106 | 63 | 118 | 3.5 | 9.6 | 0.00 | 0.06 | 0.00 | 76 | 1022.1 |
| 20260906144544 | 62 | 238 | 4.3 | 13.0 | 0.00 | 0.07 | 0.00 | 77 | 1022.3 |
| 20260906144041 | 62 | 164 | 5.2 | 13.0 | 0.00 | 0.07 | 0.00 | 76 | 1022.3 |
| 20260906143542 | 62 | 168 | 4.3 | 10.4 | 0.00 | 0.08 | 0.00 | 75 | 1022.5 |
| 20260906143009 | 62 | 254 | 4.3 | 9.6 | 0.00 | 0.10 | 0.00 | 76 | 1022.5 |
| 20260906142510 | 63 | 181 | 4.3 | 8.7 | 0.00 | 0.11 | 0.00 | 75 | 1022.5 |
| 20260906142010 | 63 | 239 | 4.3 | 9.6 | 0.00 | 0.13 | 0.00 | 74 | 1022.5 |
| 20260906141707 | 63 | 223 | 4.3 | 9.6 | 0.00 | 0.13 | 0.00 | 74 | 1022.7 |
| 20260906140940 | 63 | 240 | 4.3 | 8.7 | 0.00 | 0.13 | 0.00 | 75 | 1022.8 |
| 20260906140412 | 63 | 215 | 4.3 | 8.7 | 0.00 | 0.13 | 0.00 | 75 | 1022.7 |
| 20260906135846 | 62 | 237 | 4.3 | 9.6 | 0.00 | 0.13 | 0.00 | 76 | 1022.8 |
| 20260906135343 | 62 | 221 | 4.3 | 7.8 | 0.00 | 0.13 | 0.00 | 75 | 1023.0 |
| 20260906134817 | 62 | 224 | 4.3 | 9.6 | 0.00 | 0.13 | 0.00 | 76 | 1022.9 |
| 20260906134513 | 62 | 125 | 3.5 | 8.7 | 0.00 | 0.13 | 0.00 | 77 | 1023.0 |
| 20260906133947 | 62 | 173 | 4.3 | 7.8 | 0.00 | 0.13 | 0.00 | 76 | 1023.1 |
| 20260906133434 | 62 | 214 | 3.5 | 9.6 | 0.00 | 0.13 | 0.00 | 76 | 1023.1 |
| 20260906132702 | 62 | 202 | 3.5 | 7.8 | 0.00 | 0.13 | 0.00 | 78 | 1023.0 |
| 20260906132148 | 61 | 253 | 3.5 | 9.6 | 0.00 | 0.13 | 0.00 | 79 | 1022.9 |
| 20260906131902 | 61 | 157 | 3.5 | 9.6 | 0.00 | 0.13 | 0.00 | 79 | 1022.8 |
| 20260906131144 | 61 | 221 | 3.5 | 7.0 | 0.00 | 0.13 | 0.00 | 79 | 1022.8 |
| 20260906130648 | 62 | 243 | 2.6 | 9.6 | 0.00 | 0.13 | 0.00 | 79 | 1022.7 |
| 20260906130349 | 62 | 259 | 2.6 | 8.7 | 0.00 | 0.13 | 0.00 | 80 | 1022.6 |
| 20260906125626 | 61 | 202 | 4.3 | 12.2 | 0.00 | 0.13 | 0.00 | 79 | 1022.7 |
| 20260906125344 | 61 | 254 | 4.3 | 12.2 | 0.00 | 0.13 | 0.00 | 79 | 1022.7 |
| 20260906124844 | 61 | 235 | 3.5 | 7.0 | 0.00 | 0.13 | 0.00 | 79 | 1022.7 |
| 20260906124119 | 61 | 165 | 3.5 | 7.0 | 0.00 | 0.13 | 0.00 | 79 | 1022.7 |
| 20260906123554 | 61 | 224 | 3.5 | 6.1 | 0.00 | 0.13 | 0.00 | 79 | 1022.8 |
| 20260906123047 | 61 | 227 | 3.5 | 12.2 | 0.00 | 0.13 | 0.00 | 80 | 1022.8 |
| 20260906122524 | 61 | 214 | 2.6 | 12.2 | 0.00 | 0.13 | 0.00 | 81 | 1022.7 |
| 20260906121953 | 61 | 214 | 2.6 | 7.8 | 0.00 | 0.13 | 0.00 | 81 | 1022.7 |
| 20260906121427 | 60 | 195 | 2.6 | 7.8 | 0.00 | 0.13 | 0.00 | 81 | 1022.6 |
| 20260906120922 | 60 | 242 | 3.5 | 10.4 | 0.00 | 0.13 | 0.00 | 82 | 1022.5 |
| 20260906120425 | 60 | 260 | 3.5 | 10.4 | 0.00 | 0.13 | 0.00 | 82 | 1022.5 |
| 20260906115852 | 60 | 171 | 2.6 | 7.0 | 0.00 | 0.13 | 0.00 | 82 | 1022.5 |
| 20260906115350 | 60 | 247 | 3.5 | 7.8 | 0.00 | 0.13 | 0.00 | 83 | 1022.5 |
| 20260906114846 | 60 | 177 | 3.5 | 7.8 | 0.00 | 0.13 | 0.00 | 83 | 1022.4 |
| 20260906114345 | 59 | 221 | 2.6 | 7.0 | 0.00 | 0.13 | 0.00 | 83 | 1022.3 |
| 20260906114051 | 59 | 147 | 2.6 | 7.8 | 0.00 | 0.13 | 0.00 | 84 | 1022.2 |
| 20260906113257 | 59 | 236 | 3.5 | 8.7 | 0.00 | 0.13 | 0.00 | 85 | 1022.2 |
| 20260906112727 | 59 | 146 | 3.5 | 10.4 | 0.00 | 0.13 | 0.00 | 85 | 1022.2 |
| 20260906112223 | 59 | 190 | 4.3 | 8.7 | 0.00 | 0.13 | 0.00 | 85 | 1022.0 |
| 20260906111722 | 59 | 181 | 4.3 | 9.6 | 0.00 | 0.13 | 0.00 | 85 | 1021.9 |
| 20260906111155 | 59 | 168 | 4.3 | 12.2 | 0.00 | 0.13 | 0.00 | 85 | 1021.9 |
| 20260906110652 | 59 | 289 | 4.3 | 12.2 | 0.00 | 0.13 | 0.00 | 86 | 1021.9 |
| 20260906110154 | 59 | 196 | 4.3 | 10.4 | 0.00 | 0.13 | 0.00 | 86 | 1021.9 |
| 20260906105654 | 59 | 150 | 4.3 | 10.4 | 0.00 | 0.13 | 0.00 | 87 | 1021.9 |
| 20260906105353 | 59 | 264 | 4.3 | 9.6 | 0.00 | 0.13 | 0.00 | 87 | 1021.8 |
| 20260906104849 | 58 | 215 | 3.5 | 9.6 | 0.00 | 0.13 | 0.00 | 87 | 1021.7 |
| 20260906104120 | 58 | 212 | 3.5 | 9.6 | 0.00 | 0.13 | 0.00 | 87 | 1021.6 |
| 20260906103616 | 58 | 222 | 3.5 | 10.4 | 0.00 | 0.13 | 0.00 | 87 | 1021.5 |
| 20260906103117 | 58 | 144 | 2.6 | 10.4 | 0.00 | 0.13 | 0.00 | 87 | 1021.6 |
| 20260906102834 | 58 | 185 | 1.7 | 6.1 | 0.00 | 0.13 | 0.00 | 88 | 1021.6 |
| 20260906102110 | 58 | 166 | 0.9 | 6.1 | 0.00 | 0.13 | 0.00 | 89 | 1021.5 |
| 20260906101542 | 58 | 245 | 1.7 | 6.1 | 0.00 | 0.13 | 0.00 | 89 | 1021.5 |
| 20260906101038 | 58 | 181 | 0.0 | 6.1 | 0.00 | 0.13 | 0.00 | 90 | 1021.4 |
| 20260906100539 | 0 | 0.0 | 0.0 | 0.00 | 0.13 | 0.00 | 1021.2 | ||
| 20260906100012 | 0 | 0.0 | 0.0 | 0.00 | 0.13 | 0.00 | 1021.1 | ||
| 20260906095507 | 0 | 0.0 | 0.0 | 0.00 | 0.13 | 0.00 | 1021.0 | ||
| 20260906095157 | 0 | 0.0 | 0.0 | 0.00 | 0.13 | 0.00 | 1020.8 | ||
| 20260906094340 | 0 | 0.0 | 0.0 | 0.00 | 0.13 | 0.00 | 1020.8 | ||
| 20260906093836 | 0 | 0.0 | 0.0 | 0.00 | 0.13 | 0.00 | 1020.6 | ||
| 20260906093311 | 0 | 0.0 | 0.0 | 0.00 | 0.13 | 0.00 | 1020.5 | ||
| 20260906092811 | 0 | 0.0 | 0.0 | 0.00 | 0.13 | 0.00 | 1020.3 | ||
| 20260906092246 | 0 | 0.0 | 0.0 | 0.00 | 0.13 | 0.00 | 1020.2 | ||
| 20260906091734 | 0 | 0.0 | 0.0 | 0.00 | 0.13 | 0.00 | 1020.2 | ||
| 20260906091444 | 0 | 0.0 | 0.0 | 0.00 | 0.13 | 0.00 | 1020.2 | ||
| 20260906090627 | 0 | 0.0 | 0.0 | 0.00 | 0.13 | 0.00 | 1020.1 | ||
| 20260906090107 | 0 | 0.0 | 0.0 | 0.00 | 0.13 | 0.00 | 1020.1 | ||
| 20260906085606 | 0 | 0.0 | 0.0 | 0.00 | 0.13 | 0.00 | 1020.0 | ||
| 20260906085243 | 0 | 0.0 | 0.0 | 0.00 | 0.13 | 0.00 | 1020.0 | ||
| 20260906084432 | 0 | 0.0 | 0.0 | 0.00 | 0.13 | 0.00 | 1019.9 | ||
| 20260906083847 | 0 | 0.0 | 0.0 | 0.00 | 0.13 | 0.00 | 1019.8 | ||
| 20260906083311 | 0 | 0.0 | 0.0 | 0.00 | 0.13 | 0.00 | 1019.8 | ||
| 20260906082732 | 0 | 0.0 | 0.0 | 0.00 | 0.13 | 0.00 | 1019.9 | ||
| 20260906082220 | 0 | 0.0 | 0.0 | 0.00 | 0.13 | 0.00 | 1019.8 | ||
| 20260906082140 | 0 | 0.0 | 0.0 | 0.00 | 0.13 | 0.00 | 1019.7 | ||
| 20260906081137 | 0 | 0.0 | 0.0 | 0.00 | 0.13 | 0.00 | 1019.7 | ||
| 20260906080637 | 0 | 0.0 | 0.0 | 0.00 | 0.13 | 0.00 | 1019.6 | ||
| 20260906080047 | 0 | 0.0 | 0.0 | 0.00 | 0.13 | 0.00 | 1019.6 | ||
| 20260906075507 | 0 | 0.0 | 0.0 | 0.00 | 0.13 | 0.00 | 1019.6 | ||
| 20260906075218 | 0 | 0.0 | 0.0 | 0.00 | 0.13 | 0.00 | 1019.7 | ||
| 20260906074658 | 0 | 0.0 | 0.0 | 0.00 | 0.13 | 0.00 | 1019.7 | ||
| 20260906073838 | 0 | 116 | 0.0 | 0.0 | 0.00 | 0.13 | 0.00 | 1019.6 | |
| 20260906073255 | 56 | 116 | 0.0 | 0.9 | 0.00 | 0.13 | 0.00 | 100 | 1019.7 |
| 20260906072734 | 56 | 116 | 0.0 | 0.9 | 0.00 | 0.13 | 0.00 | 100 | 1019.7 |
| 20260906072232 | 56 | 116 | 0.0 | 0.9 | 0.00 | 0.13 | 0.00 | 100 | 1019.7 |
| 20260906071958 | 56 | 116 | 0.0 | 0.9 | 0.00 | 0.13 | 0.00 | 100 | 1019.6 |
| 20260906071202 | 56 | 116 | 0.0 | 1.7 | 0.00 | 0.13 | 0.00 | 100 | 1019.5 |
| 20260906070659 | 56 | 116 | 0.0 | 2.6 | 0.00 | 0.13 | 0.00 | 100 | 1019.5 |
| 20260906070354 | 56 | 116 | 0.0 | 2.6 | 0.00 | 0.13 | 0.00 | 100 | 1019.5 |
| 20260906065628 | 56 | 116 | 0.0 | 0.0 | 0.00 | 0.13 | 0.00 | 100 | 1019.4 |
| 20260906065103 | 56 | 116 | 0.0 | 0.0 | 0.00 | 0.13 | 0.00 | 100 | 1019.5 |
| 20260906064537 | 56 | 114 | 0.0 | 0.0 | 0.00 | 0.13 | 0.00 | 100 | 1019.6 |
| 20260906064010 | 56 | 114 | 0.0 | 0.0 | 0.00 | 0.13 | 0.00 | 100 | 1019.5 |
| 20260906063443 | 56 | 114 | 0.0 | 0.0 | 0.00 | 0.13 | 0.00 | 100 | 1019.5 |
| 20260906062939 | 56 | 114 | 0.0 | 0.0 | 0.00 | 0.13 | 0.00 | 100 | 1019.4 |
| 20260906062427 | 56 | 114 | 0.0 | 0.0 | 0.00 | 0.13 | 0.00 | 100 | 1019.4 |
| 20260906061903 | 56 | 114 | 0.0 | 0.0 | 0.00 | 0.13 | 0.00 | 100 | 1019.4 |
| 20260906061401 | 56 | 114 | 0.0 | 0.0 | 0.00 | 0.13 | 0.00 | 100 | 1019.4 |
| 20260906060900 | 55 | 114 | 0.0 | 0.0 | 0.00 | 0.13 | 0.00 | 100 | 1019.4 |
| 20260906060404 | 56 | 114 | 0.0 | 0.0 | 0.00 | 0.13 | 0.00 | 100 | 1019.5 |
| 20260906055838 | 56 | 114 | 0.0 | 1.7 | 0.00 | 0.13 | 0.00 | 100 | 1019.5 |
| 20260906055337 | 56 | 114 | 0.0 | 1.7 | 0.00 | 0.13 | 0.00 | 100 | 1019.4 |
| 20260906054832 | 56 | 114 | 0.0 | 1.7 | 0.00 | 0.13 | 0.00 | 100 | 1019.2 |
| 20260906054559 | 56 | 114 | 0.0 | 1.7 | 0.00 | 0.13 | 0.00 | 100 | 1019.3 |
| 20260906053825 | 56 | 114 | 0.0 | 1.7 | 0.00 | 0.13 | 0.00 | 100 | 1019.3 |
| 20260906053548 | 56 | 114 | 0.0 | 0.0 | 0.00 | 0.13 | 0.00 | 100 | 1019.3 |
| 20260906052819 | 56 | 114 | 0.0 | 0.0 | 0.00 | 0.13 | 0.00 | 100 | 1019.3 |
| 20260906052318 | 56 | 114 | 0.0 | 0.0 | 0.00 | 0.13 | 0.00 | 100 | 1019.1 |
| 20260906051819 | 56 | 114 | 0.0 | 0.0 | 0.00 | 0.13 | 0.00 | 100 | 1018.9 |
| 20260906051305 | 56 | 114 | 0.0 | 0.0 | 0.00 | 0.13 | 0.00 | 100 | 1018.8 |
| 20260906050809 | 56 | 114 | 0.0 | 0.0 | 0.00 | 0.13 | 0.00 | 100 | 1018.8 |
| 20260906050243 | 57 | 114 | 0.0 | 0.0 | 0.00 | 0.13 | 0.00 | 100 | 1018.8 |
| 20260906045734 | 57 | 114 | 0.0 | 0.0 | 0.00 | 0.13 | 0.00 | 100 | 1018.9 |
| 20260906045237 | 57 | 114 | 0.0 | 0.0 | 0.00 | 0.13 | 0.00 | 100 | 1019.0 |
| 20260906044732 | 57 | 114 | 0.0 | 0.0 | 0.00 | 0.13 | 0.00 | 100 | 1019.0 |
| 20260906044453 | 57 | 114 | 0.0 | 0.0 | 0.00 | 0.13 | 0.00 | 100 | 1019.0 |
| 20260906043703 | 57 | 114 | 0.0 | 0.0 | 0.00 | 0.13 | 0.00 | 100 | 1019.1 |
| 20260906043643 | 57 | 114 | 0.0 | 0.0 | 0.00 | 0.13 | 0.00 | 100 | 1019.2 |
| 20260906042636 | 57 | 114 | 0.0 | 0.0 | 0.00 | 0.13 | 0.00 | 100 | 1019.3 |
| 20260906042122 | 57 | 114 | 0.0 | 1.7 | 0.00 | 0.13 | 0.00 | 100 | 1019.4 |
| 20260906041618 | 57 | 114 | 0.0 | 1.7 | 0.00 | 0.13 | 0.00 | 100 | 1019.3 |
| 20260906041115 | 57 | 114 | 0.0 | 1.7 | 0.00 | 0.13 | 0.00 | 100 | 1019.3 |
| 20260906040614 | 57 | 114 | 0.0 | 1.7 | 0.00 | 0.13 | 0.00 | 100 | 1019.3 |
| 20260906040116 | 57 | 114 | 0.0 | 0.9 | 0.00 | 0.13 | 0.00 | 100 | 1019.4 |
| 20260906035545 | 58 | 114 | 0.0 | 0.0 | 0.00 | 0.13 | 0.00 | 100 | 1019.5 |
| 20260906035019 | 58 | 114 | 0.0 | 0.0 | 0.00 | 0.13 | 0.00 | 100 | 1019.6 |
| 20260906034452 | 58 | 114 | 0.0 | 0.0 | 0.00 | 0.13 | 0.00 | 100 | 1019.5 |
| 20260906033930 | 58 | 114 | 0.0 | 1.7 | 0.00 | 0.13 | 0.00 | 100 | 1019.6 |
| 20260906033401 | 58 | 114 | 0.0 | 1.7 | 0.00 | 0.13 | 0.00 | 100 | 1019.5 |
| 20260906032858 | 58 | 114 | 0.0 | 0.9 | 0.00 | 0.13 | 0.00 | 100 | 1019.5 |
| 20260906032332 | 58 | 114 | 0.0 | 0.9 | 0.00 | 0.13 | 0.00 | 100 | 1019.5 |
| 20260906031804 | 58 | 114 | 0.0 | 1.7 | 0.00 | 0.13 | 0.00 | 99 | 1019.5 |
| 20260906031237 | 58 | 114 | 0.0 | 2.6 | 0.00 | 0.13 | 0.00 | 99 | 1019.4 |
| 20260906030713 | 58 | 114 | 0.9 | 2.6 | 0.00 | 0.13 | 0.00 | 99 | 1019.6 |
| 20260906030146 | 58 | 113 | 0.9 | 3.5 | 0.00 | 0.13 | 0.00 | 99 | 1019.5 |
| 20260906025625 | 58 | 121 | 0.0 | 2.6 | 0.00 | 0.13 | 0.13 | 99 | 1019.5 |
| 20260906025109 | 59 | 139 | 0.0 | 0.0 | 0.00 | 0.13 | 0.13 | 99 | 1019.5 |
| 20260906024609 | 59 | 139 | 0.0 | 0.0 | 0.00 | 0.13 | 0.13 | 99 | 1019.6 |
| 20260906024044 | 59 | 139 | 0.0 | 0.0 | 0.00 | 0.13 | 0.13 | 99 | 1019.6 |
| 20260906024014 | 59 | 139 | 0.0 | 0.0 | 0.00 | 0.13 | 0.13 | 99 | 1019.6 |
| 20260906022958 | 59 | 139 | 0.0 | 0.0 | 0.00 | 0.13 | 0.13 | 99 | 1019.6 |
| 20260906022436 | 59 | 139 | 0.0 | 0.0 | 0.00 | 0.13 | 0.13 | 99 | 1019.5 |
| 20260906021907 | 59 | 139 | 0.0 | 0.0 | 0.00 | 0.13 | 0.13 | 99 | 1019.3 |
| 20260906021408 | 59 | 139 | 0.0 | 0.0 | 0.00 | 0.13 | 0.13 | 99 | 1019.4 |
| 20260906020906 | 59 | 139 | 0.0 | 0.0 | 0.00 | 0.13 | 0.13 | 99 | 1019.2 |
| 20260906020405 | 59 | 139 | 0.0 | 0.0 | 0.00 | 0.13 | 0.13 | 99 | 1019.2 |
| 20260906015836 | 60 | 148 | 0.0 | 0.0 | 0.00 | 0.13 | 0.13 | 98 | 1019.2 |
| 20260906015334 | 60 | 148 | 0.0 | 0.0 | 0.00 | 0.13 | 0.13 | 98 | 1019.1 |
| 20260906014808 | 60 | 148 | 0.0 | 0.0 | 0.00 | 0.13 | 0.13 | 98 | 1019.2 |
| 20260906014239 | 60 | 148 | 0.0 | 0.0 | 0.00 | 0.13 | 0.13 | 98 | 1019.2 |
| 20260906013737 | 60 | 148 | 0.0 | 0.0 | 0.00 | 0.13 | 0.13 | 98 | 1019.0 |
| 20260906013235 | 60 | 148 | 0.0 | 0.0 | 0.00 | 0.13 | 0.13 | 97 | 1018.8 |
| 20260906012936 | 60 | 148 | 0.0 | 0.0 | 0.00 | 0.13 | 0.13 | 97 | 1018.9 |
| 20260906012151 | 59 | 148 | 0.0 | 2.6 | 0.00 | 0.13 | 0.13 | 97 | 1018.7 |
| 20260906011640 | 59 | 148 | 0.0 | 2.6 | 0.00 | 0.13 | 0.13 | 97 | 1018.7 |
| 20260906011404 | 59 | 162 | 0.0 | 2.6 | 0.00 | 0.13 | 0.13 | 98 | 1018.7 |
| 20260906010610 | 60 | 152 | 0.0 | 2.6 | 0.00 | 0.13 | 0.13 | 98 | 1018.6 |
| 20260906010109 | 60 | 152 | 0.0 | 2.6 | 0.00 | 0.13 | 0.13 | 98 | 1018.6 |
| 20260906005611 | 60 | 152 | 0.0 | 0.0 | 0.00 | 0.13 | 0.13 | 98 | 1018.8 |
| 20260906005104 | 60 | 152 | 0.0 | 0.0 | 0.00 | 0.13 | 0.13 | 97 | 1018.7 |
| 20260906004604 | 60 | 141 | 0.0 | 0.0 | 0.00 | 0.13 | 0.13 | 97 | 1018.6 |
| 20260906004032 | 60 | 141 | 0.0 | 0.0 | 0.00 | 0.13 | 0.13 | 97 | 1018.6 |
| 20260906003503 | 60 | 141 | 0.0 | 0.0 | 0.01 | 0.13 | 0.13 | 97 | 1018.6 |
| 20260906003439 | 60 | 141 | 0.0 | 2.6 | 0.01 | 0.13 | 0.13 | 97 | 1018.6 |
| 20260906002452 | 60 | 192 | 0.0 | 2.6 | 0.01 | 0.13 | 0.13 | 97 | 1018.6 |
| 20260906001949 | 60 | 192 | 0.0 | 1.7 | 0.01 | 0.13 | 0.13 | 97 | 1018.6 |
| 20260906001426 | 60 | 150 | 0.0 | 0.0 | 0.01 | 0.13 | 0.13 | 97 | 1018.3 |
| 20260906001117 | 60 | 150 | 0.0 | 2.6 | 0.01 | 0.13 | 0.13 | 97 | 1018.2 |
| 20260906000355 | 60 | 150 | 0.0 | 2.6 | 0.01 | 0.13 | 0.13 | 96 | 1018.0 |
| 20260905235826 | 60 | 151 | 0.9 | 2.6 | 0.01 | 0.13 | 0.13 | 96 | 1018.2 |
| 20260905235323 | 60 | 150 | 0.9 | 3.5 | 0.01 | 0.13 | 0.13 | 96 | 1018.3 |
| 20260905234758 | 60 | 159 | 0.9 | 3.5 | 0.01 | 0.13 | 0.13 | 96 | 1018.3 |
| 20260905234255 | 60 | 197 | 0.9 | 3.5 | 0.01 | 0.13 | 0.13 | 96 | 1018.5 |
| 20260905233754 | 60 | 153 | 1.7 | 4.3 | 0.00 | 0.12 | 0.13 | 96 | 1018.3 |
| 20260905233225 | 60 | 203 | 0.9 | 4.3 | 0.00 | 0.12 | 0.12 | 95 | 1018.2 |
| 20260905232658 | 60 | 331 | 0.9 | 4.3 | 0.00 | 0.12 | 0.12 | 96 | 1017.5 |
| 20260905232158 | 60 | 126 | 1.7 | 5.2 | 0.01 | 0.12 | 0.12 | 96 | 1017.4 |
| 20260905231629 | 60 | 179 | 1.7 | 5.2 | 0.01 | 0.12 | 0.12 | 96 | 1017.6 |
| 20260905231125 | 61 | 216 | 0.9 | 4.3 | 0.02 | 0.12 | 0.12 | 97 | 1017.9 |
| 20260905230622 | 61 | 214 | 0.9 | 4.3 | 0.02 | 0.12 | 0.12 | 97 | 1018.0 |
| 20260905230346 | 61 | 166 | 1.7 | 4.3 | 0.02 | 0.12 | 0.12 | 97 | 1018.1 |
| 20260905225616 | 60 | 214 | 1.7 | 4.3 | 0.02 | 0.12 | 0.12 | 97 | 1018.1 |
| 20260905225113 | 60 | 224 | 0.9 | 3.5 | 0.02 | 0.12 | 0.12 | 98 | 1017.7 |
| 20260905224549 | 60 | 189 | 0.9 | 2.6 | 0.02 | 0.12 | 0.12 | 98 | 1017.2 |
| 20260905224028 | 60 | 170 | 0.0 | 2.6 | 0.02 | 0.12 | 0.12 | 98 | 1016.8 |
| 20260905223502 | 61 | 145 | 0.0 | 0.0 | 0.02 | 0.12 | 0.12 | 98 | 1016.9 |
| 20260905222924 | 61 | 156 | 0.0 | 0.0 | 0.02 | 0.12 | 0.12 | 98 | 1017.1 |
| 20260905222422 | 61 | 149 | 0.0 | 0.0 | 0.02 | 0.12 | 0.12 | 98 | 1017.0 |
| 20260905222135 | 61 | 145 | 0.0 | 0.0 | 0.01 | 0.11 | 0.11 | 98 | 1017.2 |
| 20260905221413 | 61 | 127 | 0.0 | 0.0 | 0.01 | 0.10 | 0.11 | 98 | 1017.2 |
| 20260905220844 | 61 | 247 | 0.0 | 0.0 | 0.02 | 0.10 | 0.10 | 98 | 1017.2 |
| 20260905220341 | 61 | 247 | 0.0 | 0.0 | 0.02 | 0.10 | 0.10 | 98 | 1017.1 |
| 20260905215838 | 61 | 247 | 0.0 | 1.7 | 0.02 | 0.10 | 0.10 | 98 | 1017.2 |
| 20260905215336 | 61 | 247 | 0.0 | 0.9 | 0.02 | 0.10 | 0.10 | 98 | 1017.1 |
| 20260905215021 | 61 | 247 | 0.9 | 1.7 | 0.02 | 0.10 | 0.10 | 98 | 1017.3 |
| 20260905214224 | 61 | 247 | 0.9 | 2.6 | 0.02 | 0.10 | 0.10 | 98 | 1017.2 |
| 20260905213721 | 61 | 247 | 0.9 | 2.6 | 0.02 | 0.10 | 0.10 | 98 | 1016.7 |
| 20260905213213 | 61 | 144 | 0.0 | 0.0 | 0.02 | 0.10 | 0.10 | 98 | 1016.3 |
| 20260905212711 | 61 | 221 | 0.0 | 0.0 | 0.02 | 0.10 | 0.10 | 98 | 1016.2 |
| 20260905212204 | 61 | 221 | 0.0 | 0.0 | 0.02 | 0.10 | 0.10 | 98 | 1016.0 |
| 20260905211642 | 61 | 221 | 0.0 | 0.0 | 0.01 | 0.09 | 0.09 | 97 | 1016.1 |
| 20260905211334 | 61 | 221 | 0.0 | 0.0 | 0.00 | 0.08 | 0.09 | 97 | 1016.2 |
| 20260905210609 | 61 | 221 | 0.0 | 0.0 | 0.00 | 0.08 | 0.08 | 97 | 1016.3 |
| 20260905210043 | 62 | 221 | 0.0 | 0.0 | 0.00 | 0.08 | 0.08 | 97 | 1016.5 |
| 20260905205742 | 61 | 221 | 0.0 | 1.7 | 0.00 | 0.08 | 0.08 | 97 | 1016.5 |
| 20260905205027 | 62 | 221 | 0.0 | 1.7 | 0.00 | 0.08 | 0.08 | 97 | 1016.4 |
| 20260905204524 | 62 | 222 | 0.0 | 2.6 | 0.00 | 0.08 | 0.08 | 97 | 1016.2 |
| 20260905204024 | 62 | 222 | 0.9 | 2.6 | 0.00 | 0.08 | 0.08 | 97 | 1016.2 |
| 20260905203454 | 62 | 222 | 0.9 | 2.6 | 0.00 | 0.08 | 0.08 | 97 | 1016.2 |
| 20260905202951 | 62 | 222 | 0.9 | 2.6 | 0.00 | 0.08 | 0.08 | 96 | 1016.2 |
| 20260905202424 | 62 | 211 | 0.9 | 2.6 | 0.00 | 0.08 | 0.08 | 96 | 1016.2 |
| 20260905201923 | 62 | 211 | 0.0 | 2.6 | 0.00 | 0.08 | 0.08 | 96 | 1016.1 |
| 20260905201354 | 62 | 212 | 0.0 | 1.7 | 0.00 | 0.08 | 0.08 | 96 | 1015.9 |
| 20260905200850 | 62 | 212 | 0.0 | 1.7 | 0.00 | 0.08 | 0.08 | 96 | 1015.8 |
| 20260905200328 | 62 | 212 | 0.0 | 0.0 | 0.00 | 0.08 | 0.08 | 97 | 1015.7 |
| 20260905195758 | 62 | 212 | 0.0 | 0.0 | 0.00 | 0.08 | 0.08 | 96 | 1015.4 |
| 20260905195518 | 62 | 212 | 0.0 | 0.0 | 0.00 | 0.08 | 0.08 | 96 | 1015.3 |
| 20260905194731 | 62 | 212 | 0.0 | 0.0 | 0.00 | 0.08 | 0.08 | 96 | 1015.3 |
| 20260905194202 | 62 | 212 | 0.0 | 0.0 | 0.00 | 0.08 | 0.08 | 96 | 1015.5 |
| 20260905193700 | 62 | 212 | 0.0 | 0.0 | 0.00 | 0.08 | 0.08 | 96 | 1015.4 |
| 20260905193137 | 62 | 212 | 0.0 | 0.0 | 0.00 | 0.08 | 0.08 | 96 | 1015.4 |
| 20260905192612 | 62 | 212 | 0.0 | 0.0 | 0.00 | 0.08 | 0.08 | 96 | 1015.4 |
| 20260905192110 | 62 | 190 | 0.0 | 0.0 | 0.00 | 0.08 | 0.08 | 96 | 1015.6 |
| 20260905191608 | 62 | 190 | 0.0 | 1.7 | 0.00 | 0.08 | 0.08 | 97 | 1015.6 |
| 20260905191110 | 61 | 190 | 0.0 | 1.7 | 0.00 | 0.08 | 0.08 | 96 | 1015.6 |
| 20260905190547 | 62 | 190 | 0.0 | 1.7 | 0.00 | 0.08 | 0.08 | 96 | 1015.4 |
| 20260905190039 | 62 | 190 | 0.9 | 2.6 | 0.00 | 0.08 | 0.08 | 96 | 1015.4 |
| 20260905185521 | 62 | 190 | 0.9 | 2.6 | 0.00 | 0.08 | 0.08 | 96 | 1015.6 |
| 20260905185021 | 62 | 172 | 0.9 | 2.6 | 0.00 | 0.08 | 0.08 | 96 | 1015.9 |
| 20260905184519 | 62 | 81 | 0.9 | 2.6 | 0.00 | 0.08 | 0.08 | 97 | 1015.7 |
| 20260905184021 | 62 | 207 | 0.0 | 2.6 | 0.00 | 0.08 | 0.08 | 96 | 1015.3 |
| 20260905183457 | 62 | 208 | 0.0 | 2.6 | 0.00 | 0.08 | 0.08 | 97 | 1015.3 |
| 20260905182956 | 62 | 78 | 0.0 | 0.0 | 0.00 | 0.08 | 0.08 | 97 | 1015.3 |
| 20260905182438 | 62 | 78 | 0.0 | 0.0 | 0.00 | 0.08 | 0.08 | 96 | 1015.3 |
| 20260905181936 | 62 | 78 | 0.0 | 2.6 | 0.00 | 0.08 | 0.08 | 96 | 1015.3 |
| 20260905181436 | 62 | 75 | 0.0 | 2.6 | 0.00 | 0.08 | 0.08 | 96 | 1015.5 |
| 20260905180933 | 62 | 144 | 0.0 | 0.0 | 0.00 | 0.08 | 0.08 | 96 | 1015.3 |
| 20260905180436 | 62 | 144 | 0.0 | 0.0 | 0.00 | 0.08 | 0.08 | 96 | 1015.2 |
| 20260905175910 | 62 | 145 | 0.0 | 0.0 | 0.00 | 0.08 | 0.08 | 95 | 1014.9 |
| 20260905175350 | 62 | 145 | 0.0 | 0.0 | 0.00 | 0.08 | 0.08 | 95 | 1015.1 |
| 20260905174828 | 62 | 145 | 0.0 | 0.0 | 0.00 | 0.08 | 0.08 | 95 | 1015.3 |
| 20260905174301 | 62 | 144 | 0.0 | 1.7 | 0.00 | 0.08 | 0.08 | 95 | 1015.3 |
| 20260905173745 | 63 | 143 | 0.9 | 3.5 | 0.00 | 0.08 | 0.08 | 95 | 1015.3 |
| 20260905173224 | 63 | 143 | 0.0 | 3.5 | 0.00 | 0.08 | 0.08 | 94 | 1015.2 |
| 20260905172658 | 63 | 148 | 0.0 | 0.0 | 0.00 | 0.08 | 0.08 | 93 | 1015.3 |
| 20260905172408 | 63 | 148 | 0.0 | 0.0 | 0.00 | 0.08 | 0.08 | 92 | 1015.8 |
| 20260905171646 | 63 | 148 | 0.0 | 0.0 | 0.00 | 0.08 | 0.08 | 91 | 1015.7 |
| 20260905171145 | 63 | 144 | 0.0 | 0.0 | 0.00 | 0.08 | 0.08 | 92 | 1015.5 |
| 20260905170642 | 63 | 144 | 0.0 | 1.7 | 0.00 | 0.08 | 0.08 | 92 | 1015.4 |
| 20260905170119 | 64 | 144 | 0.0 | 2.6 | 0.00 | 0.08 | 0.08 | 91 | 1015.5 |
| 20260905165819 | 63 | 145 | 0.0 | 2.6 | 0.00 | 0.08 | 0.08 | 90 | 1015.7 |
| 20260905165027 | 63 | 154 | 0.0 | 0.0 | 0.00 | 0.08 | 0.08 | 90 | 1015.8 |
| 20260905164527 | 64 | 154 | 0.0 | 0.0 | 0.00 | 0.08 | 0.08 | 91 | 1015.6 |
| 20260905164012 | 64 | 152 | 0.0 | 0.0 | 0.00 | 0.08 | 0.08 | 91 | 1015.5 |
| 20260905163444 | 64 | 202 | 0.0 | 2.6 | 0.00 | 0.08 | 0.08 | 90 | 1015.5 |
| 20260905163149 | 64 | 202 | 0.9 | 2.6 | 0.00 | 0.08 | 0.08 | 90 | 1015.7 |
| 20260905162636 | 63 | 172 | 0.9 | 2.6 | 0.00 | 0.08 | 0.08 | 90 | 1015.7 |
| 20260905161847 | 63 | 189 | 0.9 | 6.1 | 0.00 | 0.08 | 0.08 | 90 | 1015.5 |
| 20260905161320 | 63 | 133 | 1.7 | 6.1 | 0.00 | 0.08 | 0.08 | 90 | 1015.4 |
| 20260905160754 | 63 | 123 | 1.7 | 6.1 | 0.00 | 0.08 | 0.08 | 90 | 1015.4 |
| 20260905160229 | 63 | 130 | 0.9 | 6.1 | 0.00 | 0.08 | 0.08 | 90 | 1015.4 |
| 20260905155717 | 63 | 123 | 0.9 | 3.5 | 0.00 | 0.08 | 0.08 | 91 | 1015.6 |
| 20260905155213 | 63 | 175 | 0.9 | 3.5 | 0.01 | 0.08 | 0.08 | 91 | 1015.9 |
| 20260905154714 | 62 | 212 | 0.9 | 2.6 | 0.01 | 0.08 | 0.08 | 92 | 1015.9 |
| 20260905154145 | 62 | 132 | 0.9 | 3.5 | 0.02 | 0.08 | 0.08 | 93 | 1015.8 |
| 20260905153642 | 62 | 151 | 0.9 | 3.5 | 0.03 | 0.08 | 0.08 | 93 | 1015.8 |
| 20260905153117 | 62 | 287 | 0.9 | 2.6 | 0.04 | 0.08 | 0.08 | 94 | 1015.8 |
| 20260905152828 | 62 | 183 | 0.9 | 3.5 | 0.06 | 0.08 | 0.08 | 95 | 1016.2 |
| 20260905152105 | 62 | 188 | 1.7 | 3.5 | 0.07 | 0.08 | 0.08 | 95 | 1016.2 |
| 20260905151553 | 61 | 189 | 1.7 | 5.2 | 0.08 | 0.08 | 0.08 | 94 | 1016.2 |
| 20260905151331 | 61 | 208 | 0.9 | 5.2 | 0.08 | 0.08 | 0.08 | 95 | 1016.2 |